Regional Weather Roundup
Issued by NWS

Home | Current Version | Previous Version | Text Only | Print | Product List | Glossary Off
Versions: 1 2 3 4 5 6 7 8 9 10 11 12 13 14 15 16 17 18 19 20 21 22 23 24 25 26 27 28 29 30 31 32 33 34 35 36 37 38 39 40 41 42 43 44 45 46 47 48 49 50

000
ASUS43 KMPX 051410
RWRMN
WEATHER ROUNDUP FOR MINNESOTA
NATIONAL WEATHER SERVICE TWIN CITIES/CHANHASSEN MN
900 AM CDT THU MAY 05 2016


NOTE: "FAIR" INDICATES FEW OR NO CLOUDS BELOW 12,000 FEET WITH NO
SIGNIFICANT WEATHER AND/OR OBSTRUCTIONS TO VISIBILITY. N/A MEANS
CURRENT SKY AND/OR WEATHER CONDITIONS ARE NOT AVAILABLE.

MNZ060>063-068>070-051500-
   Twin Cities Metro

CITY           SKY/WX    TMP DP  RH WIND       PRES   REMARKS
TWIN CITIES    MOSUNNY   55  30  38 S9        30.07S
ST PAUL        SUNNY     54  37  52 SE5       30.08F
CRYSTAL        SUNNY     56  30  37 S10       30.06S
BLAINE         MOSUNNY   55  32  41 S10       30.06F
EDEN PRAIRIE   SUNNY     54  31  41 S7        30.06S
SOUTH ST PAUL  MOSUNNY   55  31  40 S3        30.07S
LAKE ELMO      PTSUNNY   48  39  71 S5        30.08S
$$
MNZ001>005-007-008-013>017-022>024-027-028-051500-
   Northwest Minnesota

CITY           SKY/WX    TMP DP  RH WIND       PRES   REMARKS
BEMIDJI        SUNNY     60  32  34 S8        29.93F
HALLOCK        SUNNY     66  41  39 S14       29.80S
ROSEAU         SUNNY     63  39  42 S16       29.82S
WARROAD        SUNNY     63  41  45 S9G17     29.82F
THIEF RVR FALL SUNNY     64  36  34 S15       29.88F
CROOKSTON      SUNNY     63  39  42 S14       29.88S
FOSSTON        SUNNY     63  30  29 S21G26    29.92S
DETROIT LAKES  SUNNY     61  34  36 S10G16    29.97S
MOORHEAD       SUNNY     63  36  36 S14G20    29.93S
PARK RAPIDS    MOSUNNY   57  30  35 S9        29.98F
MAHNOMEN       FAIR      62  35  36 S17       29.94S
$$
MNZ006-009>011-018-025>026-051500-
   North Central Minnesota

CITY           SKY/WX    TMP DP  RH WIND       PRES   REMARKS
BAUDETTE       SUNNY     63  32  31 S17       29.85F
FLAG ISLAND    SUNNY     50  39  66 S13       29.80S
INTL FALLS     SUNNY     57  35  43 SW7       29.88F
WASKISH        SUNNY     63  32  31 S8G20     29.89F
BIG FORK       MOSUNNY   55  34  44 S12       29.93F
LONGVILLE      PTSUNNY   52  30  43 SE3       29.99F
GRAND RAPIDS   CLOUDY    46  30  53 S12       29.98F
CRANE LAKE     PTSUNNY   46  39  76 CALM      29.95R
ORR            CLOUDY    54  28  37 CALM      29.90F
COOK           MOSUNNY   55  30  38 S9        29.92F
WALKER         FAIR      58  27  30 S8G16     29.96F
$$
MNZ012-019>021-037-051500-
   Northeast Minnesota

CITY           SKY/WX    TMP DP  RH WIND       PRES   REMARKS
DULUTH         CLOUDY    45  36  70 SW8       30.01S
ELY            MOSUNNY   52  30  43 SW8G17    29.94F
HIBBING        CLOUDY    49  32  52 SW7       29.97F
EVELETH        PTSUNNY   45  36  70 SW3       29.98F
DULUTH HARBOR  CLOUDY    46  39  76 SW8       30.04S
TWO HARBORS    CLOUDY    48  39  71 SW6       29.99S
SILVER BAY     CLOUDY    48  36  61 S6        29.97F
GRAND MARAIS     N/A     37  34  89 SW6       30.00F
G MARAIS ARPRT SUNNY     48  28  46 SW5       29.97F
$$
MNZ029>031-032-039>041-046>048-054>057-064-051500-
   West Central Minnesota

CITY           SKY/WX    TMP DP  RH WIND       PRES   REMARKS
FERGUS FALLS   SUNNY     63  37  39 S10       29.95S
WHEATON        SUNNY     64  39  39 S9        29.99S
MORRIS         SUNNY     61  37  41 S10       30.00R
ALEXANDRIA     SUNNY     61  31  32 S14       30.02F
ELBOW LAKE     FAIR      62  37  39 S14       29.99S
WADENA         SUNNY     59  34  38 S8        30.00S
GLENWOOD       SUNNY     59  34  38 S10       30.03S
APPLETON       SUNNY     61  37  41 SE7       30.01S
BENSON         SUNNY     57  36  44 S6        30.02F
ORTONVILLE     SUNNY     59  39  47 S5          N/A
MADISON        SUNNY     61  37  41 S7        30.01S
WILLMAR        FAIR      55  37  50 S3        30.06R
$$
MNZ033>034-036-042>043-049>051-058-059-051500-
   Central Minnesota

CITY           SKY/WX    TMP DP  RH WIND       PRES   REMARKS
ST CLOUD       MOSUNNY   53  31  42 S6        30.06R
SAUK CENTRE    FAIR      54  35  49 S6        30.04S
PAYNESVILLE    MOSUNNY   56  29  36 S5        30.05S
AITKIN         CLOUDY    55  27  33 S5        30.01F
PINE RIVER     CLOUDY    55  34  44 S7        30.02F
BRAINERD       PTSUNNY   51  30  44 S5        30.03F
STAPLES        CLOUDY    54  30  40 S8        30.01S
LONG PRAIRIE   FAIR      52  36  54 SE5       30.03F
LITTLE FALLS   MOSUNNY   54  32  43 S5        30.04S
LITCHFIELD     SUNNY     55  34  44 CALM      30.04F
BUFFALO        SUNNY     55  27  34 S6        30.07R
MAPLE LAKE     SUNNY     56  33  42 S5        30.07R
HUTCHINSON     SUNNY     55  35  47 S7        30.06F
$$
MNZ037-044-045-052-053-051500-
   East Central Minnesota

CITY           SKY/WX    TMP DP  RH WIND       PRES   REMARKS
PRINCETON      MOSUNNY   57  30  35 S6        30.07R
MORA           CLOUDY    50  32  50 SW7       30.07S
CAMBRIDGE      MOSUNNY   55  36  47 SW9       30.05R
RUSH CITY      PTSUNNY   51  34  51 SW9       30.05S
MOOSE LAKE     PTSUNNY   50  34  53 S7        30.02R
HINCKLEY       CLOUDY    50  36  57 SW6       30.06R
CLOQUET        MOSUNNY   48  34  57 SW7       30.01S
MCGREGOR       PTSUNNY   52  32  46 S8        30.01F
$$
MNZ071>073-080-081-089-090-097-098-051500-
   Southwest Minnesota

CITY           SKY/WX    TMP DP  RH WIND       PRES   REMARKS
MONTEVIDEO     SUNNY     61  39  44 SW5       30.05R
GRANITE FALLS  SUNNY     59  37  44 S6        30.06R
CANBY          SUNNY     66  39  36 SW9       30.02S
MARSHALL       SUNNY     64  35  34 S5        30.04R
REDWOOD FALLS  SUNNY     54  35  48 S6        30.06R
OLIVIA         MOSUNNY   54  34  47 S6        30.05R
PIPESTONE      SUNNY     57  37  47 SW6       30.05S
WINDOM         SUNNY     57  37  47 CALM      30.07R
WORTHINGTON      N/A     58  37  45 SW8       30.07R
JACKSON        SUNNY     55  34  44 S5        30.09R
TRACY          SUNNY     62  34  35 SW9       30.05R
SLAYTON        SUNNY     60  31  33 SW9       30.06R
$$
MNZ065>067-074>077-082>085-091>093-051500-
   South Central Minnesota

CITY           SKY/WX    TMP DP  RH WIND       PRES   REMARKS
MANKATO        SUNNY     55  27  33 S9        30.08R
NEW ULM        SUNNY     52  36  54 S7        30.06S
ST JAMES       SUNNY     50  32  50 SE6       30.08S
FAIRMONT       SUNNY     54  34  47 S9        30.08R
GLENCOE        SUNNY     55  32  42 S10       30.05S
FARIBAULT      SUNNY     50  32  50 S2        30.09R
OWATONNA       MOSUNNY   54  30  40 S5        30.09R
WASECA         SUNNY     52  30  43 S8        30.10R
ALBERT LEA     MOSUNNY   54  30  40 S6        30.09R
$$
MNZ078>079-086>088-094>096-051500-
   Southeast Minnesota

CITY           SKY/WX    TMP DP  RH WIND       PRES   REMARKS
ROCHESTER      CLOUDY    49  33  54 VRB5      30.10R
RED WING       DRIZZLE   46  37  71 CALM      30.09R
STANTON        MOSUNNY   54  32  42 S6        30.07S
DODGE CENTER   SUNNY     52  34  50 S6        30.09R
WINONA         SUNNY     50  36  57 CALM      30.10R
AUSTIN         SUNNY     52  34  50 CALM      30.09R
PRESTON        CLOUDY    47  33  57 CALM      30.10R
$$
ABBREVIATIONS USED IN REMARKS
   TC - TEMPERATURES IN CELSIUS
  WCI - WIND CHILL INDEX
   HX - HEAT INDEX
  VSB - VISIBILITY
$$




USA.gov is the U.S. government's official web portal to all federal, state and local government web resources and services.